FW0428 Weather Reports


Display with metric or nautical units.
time (UTC)temp
F
wind
direction
speed
MPH
gust
MPH
rain 1hr
in
rain 24hr
in
rain mn
in
humidity
%
barometer
mb
20260506134536 59 239 0.0 3.0 0.00 0.00 0.00 89 1010.0
20260506130051 61 229 0.0 3.0 0.00 0.00 0.00 89 1009.8
20260506123013 62 227 0.0 1.0 0.00 0.00 0.00 88 1009.0
20260506121634 63 180 0.0 2.0 0.00 0.00 0.00 87 1008.9
20260506120155 64 126 0.0 1.0 0.00 0.00 0.00 86 1008.7
20260506093055 74 76 0.0 6.0 0.00 0.00 0.00 89 1006.7
20260506091657 74 291 1.0 5.0 0.00 0.00 0.00 89 1006.7
20260506090143 74 115 0.0 2.0 0.00 0.00 0.00 89 1006.7
20260506084557 74 66 0.0 3.0 0.00 0.00 0.00 89 1006.6
20260506083146 74 89 0.0 3.0 0.00 0.00 0.00 89 1006.6
20260506061518 74 93 0.0 1.0 0.00 0.00 0.00 88 1006.9
20260506050201 76 103 0.0 2.0 0.00 0.00 0.00 85 1006.3
20260506044611 76 99 0.0 2.0 0.00 0.00 0.00 85 1006.4
20260506033106 76 82 0.0 3.0 0.00 0.00 0.00 84 1005.3
20260506023015 76 94 0.0 0.0 0.00 0.00 0.00 84 1004.8
20260506021658 77 93 0.0 0.0 0.00 0.00 0.00 84 1004.9
20260506014512 78 93 0.0 0.0 0.00 0.00 0.00 81 1004.6
20260506013034 78 93 0.0 0.0 0.00 0.00 0.00 80 1004.6
20260506010147 80 93 0.0 2.0 0.00 0.00 0.00 78 1004.2
20260506004539 80 70 0.0 0.0 0.00 0.00 0.00 76 1003.9
20260505234656 82 181 0.0 2.0 0.00 0.00 0.00 72 1003.8
20260505211540 83 53 2.0 7.0 0.00 0.00 0.00 70 1004.1
20260505203052 83 67 3.0 8.0 0.00 0.00 0.00 70 1004.3
20260505201521 82 84 1.0 8.0 0.00 0.00 0.00 71 1004.5
20260505200048 82 83 2.0 11.0 0.00 0.00 0.00 72 1004.6
20260505193117 81 105 2.0 11.0 0.00 0.00 0.00 74 1004.9
20260505191657 80 76 1.0 7.0 0.00 0.00 0.00 75 1004.9
20260505190154 80 86 1.0 5.0 0.00 0.00 0.00 75 1005.0
20260505183019 79 53 1.0 12.0 0.00 0.00 0.00 76 1005.2
20260505181557 79 65 1.0 7.0 0.00 0.00 0.00 76 1005.2
20260505180111 78 116 2.0 15.0 0.00 0.00 0.00 77 1005.3
20260505173155 78 270 1.0 10.0 0.00 0.00 0.00 78 1005.5
20260505171620 78 105 1.0 9.0 0.00 0.00 0.00 78 1005.6
20260505170135 77 168 2.0 11.0 0.00 0.00 0.00 78 1005.7
20260505164538 76 57 3.0 8.0 0.00 0.00 0.00 80 1005.7
20260505153021 73 106 1.0 11.0 0.00 0.00 0.00 83 1005.5
20260505150136 72 81 2.0 7.0 0.00 0.00 0.00 83 1005.5
20260505140137 70 48 0.0 11.0 0.00 0.00 0.00 86 1005.9